When you browse on this site, cookies collect data to enhance your experience and personalize the content and advertising you see.
Visit our Privacy Policy to learn more. By continuing to use the site, you agree to this use of cookies and data.
  • In Hungary
  • List of Countries
  • For 7 days
  • Water Temperature
  • Satellite Maps
  • Weather Map
  • News
  • Weather Widgets
  • user-avatar
    Login

    Hourly Weather Shama

    Today, 27 May, Monday

    Time Temperature Precipitation Wind Pressure Humidity
    00:00 +15°C° 0 mm 4 mps 744 mmHg 92%
    01:00 +14°C° 0 mm 4 mps 744 mmHg 92%
    02:00 +14°C° 0 mm 5 mps 744 mmHg 93%
    03:00 +13°C° 0 mm 5 mps 744 mmHg 94%
    04:00 +14°C° 0 mm 5 mps 743 mmHg 92%
    05:00 +14°C° 0 mm 6 mps 743 mmHg 90%
    06:00 +15°C° 0 mm 6 mps 743 mmHg 89%
    07:00 +16°C° 0.4 mm 6 mps 743 mmHg 88%
    08:00 +16°C° 0.4 mm 7 mps 743 mmHg 86%
    09:00 +17°C° 0.4 mm 7 mps 743 mmHg 85%
    10:00 +16°C° 0.7 mm 7 mps 743 mmHg 88%
    11:00 +16°C° 0.7 mm 6 mps 743 mmHg 90%
    12:00 +15°C° 0.7 mm 6 mps 743 mmHg 92%
    13:00 +16°C° 0.2 mm 6 mps 743 mmHg 88%
    14:00 +19°C° 0.2 mm 6 mps 743 mmHg 84%
    15:00 +20°C° 0.2 mm 6 mps 743 mmHg 80%
    16:00 +20°C° 0.3 mm 5 mps 744 mmHg 81%
    17:00 +20°C° 0.3 mm 4 mps 744 mmHg 83%
    18:00 +20°C° 0.3 mm 4 mps 744 mmHg 85%
    19:00 +18°C° 0.2 mm 3 mps 745 mmHg 87%
    20:00 +17°C° 0.2 mm 3 mps 745 mmHg 90%
    21:00 +16°C° 0.2 mm 3 mps 746 mmHg 92%
    22:00 +14°C° 0 mm 3 mps 746 mmHg 91%
    23:00 +13°C° 0 mm 3 mps 747 mmHg 90%

    Tomorrow, 28 May, Tuesday

    Time Temperature Precipitation Wind Pressure Humidity
    00:00 +12°C° 0 mm 3 mps 747 mmHg 89%
    01:00 +11°C° 0 mm 3 mps 748 mmHg 89%
    02:00 +11°C° 0 mm 3 mps 748 mmHg 88%
    03:00 +10°C° 0 mm 2 mps 749 mmHg 88%
    04:00 +12°C° 0 mm 2 mps 749 mmHg 86%
    05:00 +13°C° 0 mm 2 mps 749 mmHg 83%
    06:00 +14°C° 0 mm 2 mps 750 mmHg 81%
    07:00 +16°C° 0 mm 2 mps 750 mmHg 75%
    08:00 +18°C° 0 mm 2 mps 750 mmHg 70%
    09:00 +19°C° 0 mm 3 mps 751 mmHg 64%
    10:00 +20°C° 0 mm 3 mps 751 mmHg 62%
    11:00 +21°C° 0 mm 3 mps 751 mmHg 60%
    12:00 +22°C° 0 mm 4 mps 751 mmHg 58%
    13:00 +22°C° 0 mm 4 mps 751 mmHg 59%
    14:00 +22°C° 0 mm 4 mps 750 mmHg 60%
    15:00 +22°C° 0 mm 4 mps 750 mmHg 61%
    16:00 +22°C° 0 mm 3 mps 750 mmHg 66%
    17:00 +22°C° 0 mm 3 mps 751 mmHg 70%
    18:00 +23°C° 0 mm 2 mps 751 mmHg 75%
    19:00 +20°C° 0 mm 2 mps 751 mmHg 80%
    20:00 +19°C° 0 mm 2 mps 751 mmHg 84%
    21:00 +17°C° 0 mm 2 mps 751 mmHg 89%
    22:00 +17°C° 0 mm 2 mps 751 mmHg 90%
    23:00 +16°C° 0 mm 2 mps 751 mmHg 91%

    Day after tomorrow, 29 May, Wednesday

    Time Temperature Precipitation Wind Pressure Humidity
    00:00 +16°C° 0 mm 2 mps 752 mmHg 92%
    01:00 +16°C° 0 mm 2 mps 752 mmHg 92%
    02:00 +16°C° 0 mm 2 mps 752 mmHg 93%
    03:00 +15°C° 0 mm 2 mps 752 mmHg 93%
    04:00 +16°C° 0 mm 2 mps 753 mmHg 91%
    05:00 +18°C° 0 mm 1 mps 753 mmHg 88%
    06:00 +19°C° 0 mm 1 mps 753 mmHg 85%
    07:00 +21°C° 0 mm 1 mps 753 mmHg 80%
    08:00 +22°C° 0 mm 1 mps 753 mmHg 75%
    09:00 +24°C° 0 mm 1 mps 754 mmHg 70%
    10:00 +25°C° 0 mm 2 mps 753 mmHg 67%
    11:00 +26°C° 0 mm 2 mps 753 mmHg 63%
    12:00 +26°C° 0 mm 2 mps 753 mmHg 60%
    13:00 +27°C° 0 mm 2 mps 753 mmHg 60%
    14:00 +27°C° 0 mm 3 mps 753 mmHg 60%
    15:00 +27°C° 0 mm 3 mps 753 mmHg 60%
    16:00 +27°C° 0 mm 2 mps 753 mmHg 64%
    17:00 +26°C° 0 mm 2 mps 753 mmHg 68%
    18:00 +26°C° 0 mm 2 mps 753 mmHg 72%
    19:00 +24°C° 0 mm 2 mps 753 mmHg 76%
    20:00 +23°C° 0 mm 2 mps 753 mmHg 79%
    21:00 +20°C° 0 mm 2 mps 753 mmHg 82%
    22:00 +20°C° 0 mm 2 mps 753 mmHg 84%
    23:00 +19°C° 0 mm 2 mps 754 mmHg 86%

    30 May, Thursday

    Time Temperature Precipitation Wind Pressure Humidity
    00:00 +19°C° 0 mm 2 mps 754 mmHg 87%
    01:00 +18°C° 0 mm 2 mps 754 mmHg 89%
    02:00 +18°C° 0 mm 2 mps 754 mmHg 90%
    03:00 +18°C° 0 mm 2 mps 754 mmHg 92%
    04:00 +19°C° 0 mm 2 mps 754 mmHg 90%
    05:00 +20°C° 0 mm 2 mps 754 mmHg 88%
    06:00 +21°C° 0 mm 2 mps 754 mmHg 86%
    07:00 +24°C° 0 mm 2 mps 754 mmHg 81%
    08:00 +25°C° 0 mm 2 mps 754 mmHg 76%
    09:00 +26°C° 0 mm 2 mps 754 mmHg 71%
    10:00 +27°C° 0.1 mm 2 mps 754 mmHg 68%
    11:00 +28°C° 0.1 mm 2 mps 754 mmHg 64%
    12:00 +29°C° 0.1 mm 3 mps 754 mmHg 61%
    13:00 +29°C° 0 mm 3 mps 754 mmHg 61%
    14:00 +29°C° 0 mm 3 mps 754 mmHg 60%
    15:00 +29°C° 0 mm 3 mps 754 mmHg 60%
    16:00 +29°C° 0 mm 3 mps 753 mmHg 64%
    17:00 +28°C° 0 mm 2 mps 753 mmHg 68%
    18:00 +27°C° 0 mm 2 mps 753 mmHg 71%
    19:00 +26°C° 0 mm 2 mps 753 mmHg 74%
    20:00 +24°C° 0 mm 1 mps 753 mmHg 77%
    21:00 +23°C° 0 mm 1 mps 754 mmHg 80%
    22:00 +21°C° 0 mm 2 mps 754 mmHg 81%
    23:00 +21°C° 0 mm 2 mps 754 mmHg 83%

    31 May, Friday

    Time Temperature Precipitation Wind Pressure Humidity
    00:00 +20°C° 0 mm 2 mps 754 mmHg 84%
    01:00 +20°C° 0 mm 2 mps 754 mmHg 86%
    02:00 +19°C° 0 mm 2 mps 754 mmHg 87%
    03:00 +19°C° 0 mm 2 mps 754 mmHg 89%
    04:00 +20°C° 0 mm 2 mps 754 mmHg 86%
    05:00 +22°C° 0 mm 1 mps 754 mmHg 83%
    06:00 +23°C° 0 mm 1 mps 754 mmHg 80%
    07:00 +24°C° 0 mm 2 mps 754 mmHg 75%
    08:00 +26°C° 0 mm 2 mps 754 mmHg 70%
    09:00 +27°C° 0 mm 2 mps 754 mmHg 64%
    10:00 +28°C° 0 mm 2 mps 754 mmHg 60%
    11:00 +28°C° 0 mm 2 mps 754 mmHg 56%
    12:00 +29°C° 0 mm 3 mps 753 mmHg 53%
    13:00 +29°C° 0 mm 3 mps 753 mmHg 52%
    14:00 +29°C° 0 mm 3 mps 753 mmHg 52%
    15:00 +29°C° 0 mm 3 mps 753 mmHg 52%
    16:00 +29°C° 0 mm 2 mps 753 mmHg 57%
    17:00 +28°C° 0 mm 2 mps 753 mmHg 61%
    18:00 +27°C° 0 mm 2 mps 753 mmHg 66%
    19:00 +26°C° 0 mm 1 mps 753 mmHg 68%
    20:00 +24°C° 0 mm 1 mps 753 mmHg 70%
    21:00 +23°C° 0 mm 1 mps 753 mmHg 72%
    22:00 +22°C° 0 mm 1 mps 753 mmHg 74%
    23:00 +22°C° 0 mm 1 mps 753 mmHg 75%

    1 June, Saturday

    Time Temperature Precipitation Wind Pressure Humidity
    00:00 +21°C° 0 mm 1 mps 753 mmHg 77%
    01:00 +21°C° 0 mm 1 mps 753 mmHg 79%
    02:00 +21°C° 0 mm 1 mps 753 mmHg 81%
    03:00 +19°C° 0 mm 2 mps 753 mmHg 83%
    04:00 +21°C° 0 mm 1 mps 753 mmHg 82%
    05:00 +22°C° 0 mm 1 mps 753 mmHg 80%
    06:00 +23°C° 0 mm 1 mps 753 mmHg 78%
    07:00 +25°C° 0.1 mm 1 mps 753 mmHg 73%
    08:00 +26°C° 0.1 mm 1 mps 753 mmHg 67%
    09:00 +28°C° 0.1 mm 2 mps 753 mmHg 62%
    10:00 +29°C° 0 mm 2 mps 753 mmHg 57%
    11:00 +29°C° 0 mm 2 mps 753 mmHg 53%
    12:00 +30°C° 0 mm 2 mps 753 mmHg 48%
    13:00 +30°C° 0 mm 2 mps 753 mmHg 48%
    14:00 +30°C° 0 mm 2 mps 752 mmHg 48%
    15:00 +30°C° 0 mm 2 mps 752 mmHg 48%
    16:00 +30°C° 0 mm 2 mps 752 mmHg 52%
    17:00 +29°C° 0 mm 1 mps 752 mmHg 57%
    18:00 +28°C° 0 mm 1 mps 752 mmHg 61%
    19:00 +27°C° 0 mm 1 mps 752 mmHg 63%
    20:00 +25°C° 0 mm 1 mps 752 mmHg 65%
    21:00 +21°C° 0 mm 0 mps 752 mmHg 67%
    22:00 +23°C° 0 mm 1 mps 752 mmHg 69%
    23:00 +22°C° 0 mm 1 mps 752 mmHg 70%
    Show more